QPF
0.00 0.00 0.00 0.00 0.00 0.00 0.00 0.00 0.00 0.00 0.00 0.00 0.00 0.00 0.00 0.00 0.00 0.00 0.01 0.01 0.01 0.01 0.02 0.03 0.04 0.05 0.05 0.05 0.04 0.02 0.01 0.02 0.02 0.04 0.08 0.15 0.22 0.20 0.12 0.08 0.05 0.04 0.04 0.02
0.00 0.00 0.00 0.00 0.00 0.00 0.00 0.00 0.00 0.00 0.00 0.00 0.00 0.00 0.00 0.00 0.00 0.00 0.01 0.01 0.01 0.02 0.03 0.05 0.05 0.07 0.06 0.06 0.05 0.03 0.03 0.03 0.05 0.08 0.13 0.17 0.18 0.15 0.11 0.08 0.05 0.04 0.03 0.02
0.00 0.00 0.00 0.00 0.00 0.00 0.00 0.00 0.00 0.00 0.00 0.00 0.00 0.00 0.00 0.00 0.00 0.00 0.01 0.01 0.01 0.02 0.02 0.03 0.03 0.04 0.05 0.05 0.05 0.05 0.04 0.07 0.13 0.14 0.13 0.13 0.13 0.14 0.07 0.05 0.03 0.03 0.03 0.03
0.00 0.00 0.00 0.00 0.00 0.00 0.00 0.00 0.00 0.00 0.00 0.00 0.00 0.00 0.00 0.00 0.00 0.00 0.01 0.01 0.01 0.01 0.01 0.01 0.01 0.03 0.05 0.03 0.04 0.05 0.06 0.09 0.10 0.10 0.10 0.12 0.12 0.07 0.04 0.04 0.03 0.03 0.03 0.03
0.00 0.00 0.00 0.00 0.00 0.00 0.00 0.00 0.00 0.00 0.00 0.00 0.00 0.01 0.01 0.01 0.00 0.01 0.01 0.00 0.01 0.01 0.01 0.02 0.02 0.02 0.02 0.03 0.04 0.05 0.06 0.06 0.08 0.09 0.09 0.08 0.07 0.05 0.05 0.04 0.03 0.03 0.03 0.03
0.00 0.00 0.00 0.00 0.00 0.00 0.00 0.00 0.00 0.00 0.00 0.00 0.01 0.01 0.00 0.00 0.01 0.01 0.01 0.01 0.01 0.01 0.01 0.02 0.05 0.05 0.05 0.08 0.10 0.10 0.09 0.09 0.10 0.10 0.09 0.09 0.09 0.08 0.07 0.05 0.04 0.03 0.03 0.02
0.00 0.00 0.00 0.00 0.00 0.00 0.00 0.00 0.00 0.00 0.00 0.01 0.01 0.00 0.01 0.01 0.01 0.02 0.01 0.02 0.02 0.02 0.03 0.03 0.04 0.06 0.08 0.12 0.12 0.11 0.11 0.12 0.10 0.10 0.11 0.12 0.13 0.10 0.08 0.07 0.05 0.04 0.03 0.02
0.00 0.01 0.01 0.00 0.00 0.00 0.00 0.00 0.00 0.00 0.00 0.01 0.01 0.01 0.01 0.02 0.02 0.02 0.02 0.02 0.03 0.03 0.04 0.04 0.05 0.07 0.08 0.09 0.11 0.13 0.15 0.16 0.14 0.13 0.14 0.15 0.15 0.13 0.11 0.10 0.07 0.04 0.04 0.03
0.00 0.00 0.00 0.00 0.00 0.00 0.00 0.00 0.00 0.00 0.00 0.01 0.01 0.02 0.03 0.04 0.04 0.04 0.04 0.04 0.05 0.05 0.06 0.07 0.08 0.09 0.10 0.10 0.14 0.17 0.19 0.21 0.24 0.23 0.20 0.17 0.18 0.18 0.15 0.13 0.11 0.08 0.07 0.06
0.00 0.00 0.00 0.00 0.00 0.00 0.00 0.00 0.00 0.00 0.00 0.01 0.01 0.02 0.05 0.08 0.07 0.06 0.06 0.06 0.06 0.07 0.10 0.13 0.14 0.13 0.11 0.11 0.12 0.17 0.20 0.22 0.24 0.25 0.26 0.21 0.17 0.17 0.16 0.13 0.11 0.08 0.08 0.07
0.00 0.01 0.01 0.00 0.00 0.00 0.01 0.01 0.01 0.01 0.01 0.02 0.02 0.03 0.03 0.04 0.06 0.07 0.07 0.09 0.09 0.08 0.11 0.14 0.16 0.16 0.14 0.12 0.11 0.14 0.15 0.14 0.15 0.17 0.20 0.20 0.18 0.16 0.16 0.12 0.08 0.07 0.06 0.05
0.00 0.00 0.01 0.01 0.01 0.01 0.01 0.02 0.02 0.03 0.04 0.05 0.05 0.05 0.06 0.06 0.06 0.06 0.06 0.06 0.07 0.07 0.07 0.07 0.08 0.10 0.11 0.12 0.12 0.11 0.10 0.11 0.12 0.12 0.13 0.13 0.13 0.13 0.12 0.10 0.07 0.06 0.06 0.05
0.00 0.01 0.01 0.01 0.01 0.02 0.03 0.05 0.07 0.08 0.10 0.12 0.13 0.12 0.11 0.09 0.08 0.07 0.06 0.05 0.05 0.05 0.05 0.06 0.06 0.05 0.05 0.07 0.08 0.09 0.08 0.08 0.09 0.09 0.09 0.10 0.10 0.08 0.07 0.05 0.04 0.04 0.04 0.03
0.01 0.01 0.01 0.01 0.02 0.03 0.08 0.14 0.16 0.19 0.19 0.18 0.20 0.20 0.17 0.14 0.12 0.10 0.08 0.06 0.04 0.04 0.04 0.05 0.06 0.07 0.07 0.06 0.07 0.08 0.10 0.10 0.09 0.08 0.08 0.07 0.07 0.06 0.05 0.04 0.03 0.03 0.03 0.03
0.02 0.02 0.02 0.02 0.03 0.04 0.09 0.18 0.24 0.27 0.29 0.25 0.22 0.19 0.16 0.13 0.10 0.07 0.05 0.04 0.04 0.05 0.05 0.05 0.07 0.08 0.10 0.12 0.12 0.11 0.12 0.12 0.11 0.12 0.11 0.09 0.08 0.06 0.06 0.04 0.04 0.03 0.04 0.03
0.03 0.03 0.04 0.04 0.05 0.07 0.11 0.16 0.20 0.22 0.22 0.23 0.23 0.20 0.17 0.16 0.12 0.08 0.07 0.07 0.05 0.04 0.04 0.05 0.06 0.06 0.08 0.09 0.11 0.12 0.12 0.16 0.15 0.14 0.13 0.11 0.10 0.09 0.07 0.06 0.05 0.04 0.03 0.03
0.06 0.05 0.05 0.05 0.06 0.06 0.08 0.09 0.12 0.16 0.17 0.17 0.16 0.16 0.15 0.16 0.15 0.13 0.13 0.11 0.09 0.07 0.07 0.08 0.09 0.09 0.09 0.08 0.07 0.06 0.06 0.09 0.12 0.11 0.09 0.08 0.08 0.08 0.07 0.05 0.04 0.03 0.03 0.04
0.13 0.11 0.08 0.07 0.06 0.07 0.06 0.07 0.07 0.07 0.10 0.12 0.13 0.12 0.12 0.11 0.09 0.10 0.11 0.09 0.08 0.06 0.07 0.09 0.10 0.11 0.11 0.10 0.08 0.07 0.06 0.06 0.07 0.07 0.08 0.07 0.07 0.07 0.07 0.06 0.06 0.05 0.05 0.06
0.14 0.15 0.11 0.07 0.07 0.07 0.06 0.06 0.06 0.06 0.06 0.06 0.07 0.08 0.09 0.09 0.07 0.07 0.08 0.10 0.10 0.09 0.07 0.07 0.08 0.08 0.09 0.10 0.11 0.10 0.09 0.08 0.08 0.09 0.10 0.11 0.10 0.08 0.07 0.07 0.07 0.06 0.04 0.04
0.12 0.17 0.14 0.07 0.07 0.07 0.05 0.06 0.09 0.11 0.08 0.05 0.05 0.06 0.07 0.06 0.06 0.07 0.08 0.11 0.12 0.10 0.07 0.07 0.06 0.06 0.06 0.06 0.09 0.10 0.10 0.10 0.11 0.11 0.11 0.11 0.10 0.09 0.08 0.07 0.07 0.05 0.04 0.04
0.08 0.11 0.10 0.07 0.08 0.08 0.07 0.08 0.13 0.17 0.13 0.09 0.07 0.07 0.08 0.07 0.06 0.06 0.06 0.06 0.06 0.06 0.05 0.06 0.06 0.05 0.05 0.04 0.05 0.05 0.06 0.08 0.09 0.09 0.09 0.09 0.08 0.09 0.10 0.10 0.07 0.05 0.05 0.05
0.05 0.05 0.05 0.06 0.08 0.09 0.09 0.09 0.12 0.16 0.15 0.13 0.12 0.09 0.07 0.07 0.05 0.04 0.04 0.05 0.06 0.06 0.06 0.06 0.06 0.06 0.05 0.04 0.03 0.03 0.04 0.04 0.05 0.06 0.07 0.07 0.08 0.08 0.09 0.10 0.10 0.08 0.07 0.07
0.03 0.03 0.04 0.04 0.05 0.06 0.06 0.06 0.05 0.06 0.07 0.09 0.09 0.08 0.06 0.04 0.03 0.02 0.02 0.03 0.04 0.06 0.08 0.08 0.08 0.07 0.06 0.05 0.04 0.03 0.03 0.03 0.03 0.03 0.03 0.03 0.04 0.06 0.07 0.07 0.07 0.07 0.07 0.07
0.03 0.02 0.02 0.03 0.04 0.04 0.04 0.04 0.04 0.04 0.04 0.04 0.04 0.03 0.03 0.03 0.02 0.02 0.02 0.02 0.03 0.04 0.06 0.08 0.09 0.08 0.08 0.08 0.08 0.06 0.04 0.03 0.02 0.03 0.04 0.03 0.03 0.03 0.03 0.03 0.03 0.03 0.03 0.04
0.03 0.02 0.02 0.03 0.03 0.03 0.03 0.03 0.03 0.03 0.03 0.03 0.02 0.02 0.03 0.02 0.02 0.02 0.02 0.02 0.02 0.02 0.02 0.04 0.05 0.06 0.06 0.07 0.06 0.06 0.05 0.03 0.02 0.01 0.02 0.01 0.01 0.01 0.01 0.01 0.02 0.02 0.02 0.02
0.02 0.02 0.02 0.02 0.02 0.02 0.02 0.03 0.03 0.04 0.04 0.04 0.04 0.03 0.02 0.02 0.02 0.02 0.02 0.02 0.02 0.02 0.02 0.02 0.02 0.02 0.02 0.03 0.03 0.03 0.02 0.01 0.01 0.01 0.01 0.00 0.00 0.00 0.00 0.00 0.01 0.01 0.01 0.02
0.01 0.01 0.01 0.01 0.01 0.01 0.02 0.02 0.03 0.04 0.05 0.04 0.04 0.03 0.02 0.02 0.03 0.02 0.02 0.03 0.03 0.03 0.02 0.02 0.02 0.01 0.01 0.01 0.02 0.02 0.01 0.01 0.01 0.01 0.01 0.01 0.01 0.01 0.01 0.01 0.01 0.01 0.02 0.02
MSLP
1010.96 1010.88 1010.93 1011.10 1011.31 1011.50 1011.57 1011.44 1011.08 1010.50 1009.72 1008.85 1007.98 1007.24 1006.72 1006.46 1006.49 1006.77 1007.23 1007.80 1008.37 1008.89 1009.30 1009.61 1009.82 1010.00 1010.17 1010.38 1010.66 1011.01 1011.40 1011.81 1012.19 1012.52 1012.76 1012.92 1013.01 1013.07 1013.14 1013.23 1013.38 1013.58 1013.82 1014.07
1011.15 1010.96 1010.85 1010.81 1010.80 1010.76 1010.63 1010.35 1009.91 1009.31 1008.59 1007.82 1007.08 1006.47 1006.04 1005.83 1005.86 1006.08 1006.45 1006.90 1007.37 1007.80 1008.16 1008.47 1008.73 1008.97 1009.23 1009.54 1009.91 1010.33 1010.76 1011.19 1011.57 1011.89 1012.12 1012.27 1012.36 1012.43 1012.52 1012.65 1012.83 1013.06 1013.34 1013.63
1011.54 1011.28 1011.06 1010.87 1010.68 1010.46 1010.15 1009.74 1009.21 1008.57 1007.86 1007.13 1006.45 1005.87 1005.45 1005.22 1005.17 1005.28 1005.51 1005.82 1006.15 1006.49 1006.81 1007.11 1007.41 1007.73 1008.09 1008.51 1008.97 1009.46 1009.95 1010.41 1010.81 1011.13 1011.37 1011.53 1011.64 1011.74 1011.86 1012.02 1012.23 1012.51 1012.81 1013.13
1012.16 1011.87 1011.58 1011.28 1010.96 1010.59 1010.14 1009.61 1008.99 1008.29 1007.54 1006.79 1006.09 1005.49 1005.01 1004.69 1004.52 1004.48 1004.56 1004.71 1004.92 1005.16 1005.43 1005.72 1006.06 1006.44 1006.88 1007.38 1007.92 1008.48 1009.02 1009.51 1009.94 1010.28 1010.54 1010.73 1010.88 1011.02 1011.17 1011.37 1011.62 1011.92 1012.25 1012.58
1012.93 1012.63 1012.30 1011.93 1011.52 1011.03 1010.48 1009.84 1009.12 1008.34 1007.53 1006.73 1005.98 1005.31 1004.75 1004.32 1004.02 1003.84 1003.77 1003.79 1003.89 1004.05 1004.27 1004.55 1004.90 1005.32 1005.80 1006.35 1006.93 1007.52 1008.08 1008.60 1009.04 1009.41 1009.70 1009.93 1010.12 1010.31 1010.52 1010.76 1011.04 1011.35 1011.69 1012.02
1013.74 1013.43 1013.07 1012.65 1012.17 1011.60 1010.95 1010.22 1009.42 1008.57 1007.70 1006.84 1006.03 1005.30 1004.67 1004.16 1003.77 1003.49 1003.32 1003.25 1003.27 1003.37 1003.55 1003.81 1004.15 1004.56 1005.05 1005.59 1006.16 1006.73 1007.28 1007.79 1008.24 1008.62 1008.94 1009.21 1009.46 1009.70 1009.95 1010.23 1010.54 1010.87 1011.20 1011.52
1014.45 1014.12 1013.73 1013.27 1012.73 1012.10 1011.38 1010.58 1009.72 1008.82 1007.90 1007.01 1006.17 1005.41 1004.76 1004.23 1003.81 1003.50 1003.31 1003.21 1003.20 1003.28 1003.43 1003.67 1003.97 1004.34 1004.77 1005.24 1005.75 1006.25 1006.75 1007.21 1007.64 1008.02 1008.36 1008.67 1008.96 1009.25 1009.55 1009.87 1010.19 1010.52 1010.85 1011.15
1014.94 1014.58 1014.15 1013.65 1013.06 1012.38 1011.61 1010.77 1009.88 1008.95 1008.03 1007.14 1006.33 1005.61 1005.00 1004.51 1004.15 1003.90 1003.75 1003.70 1003.72 1003.81 1003.96 1004.16 1004.41 1004.70 1005.03 1005.39 1005.77 1006.16 1006.56 1006.94 1007.32 1007.67 1008.02 1008.35 1008.69 1009.02 1009.36 1009.71 1010.04 1010.37 1010.67 1010.95
1015.15 1014.74 1014.27 1013.72 1013.09 1012.38 1011.59 1010.74 1009.84 1008.93 1008.05 1007.22 1006.48 1005.85 1005.35 1004.99 1004.75 1004.63 1004.60 1004.65 1004.75 1004.89 1005.05 1005.22 1005.40 1005.59 1005.78 1005.99 1006.22 1006.46 1006.72 1007.00 1007.30 1007.62 1007.96 1008.31 1008.67 1009.04 1009.41 1009.76 1010.10 1010.42 1010.69 1010.94
1015.07 1014.60 1014.09 1013.51 1012.86 1012.14 1011.35 1010.51 1009.65 1008.79 1007.98 1007.24 1006.62 1006.13 1005.79 1005.59 1005.53 1005.58 1005.72 1005.90 1006.12 1006.32 1006.51 1006.66 1006.77 1006.84 1006.90 1006.94 1007.00 1007.08 1007.19 1007.36 1007.57 1007.84 1008.16 1008.51 1008.89 1009.28 1009.66 1010.02 1010.35 1010.64 1010.88 1011.08
1014.74 1014.24 1013.69 1013.10 1012.45 1011.74 1010.98 1010.19 1009.39 1008.61 1007.89 1007.27 1006.78 1006.45 1006.28 1006.27 1006.39 1006.63 1006.94 1007.28 1007.61 1007.89 1008.10 1008.23 1008.28 1008.26 1008.18 1008.07 1007.96 1007.89 1007.87 1007.92 1008.05 1008.27 1008.56 1008.90 1009.28 1009.68 1010.06 1010.41 1010.72 1010.97 1011.17 1011.32
1014.25 1013.73 1013.18 1012.61 1011.99 1011.33 1010.63 1009.90 1009.18 1008.49 1007.88 1007.37 1007.01 1006.82 1006.80 1006.94 1007.23 1007.63 1008.09 1008.56 1008.99 1009.34 1009.58 1009.71 1009.70 1009.60 1009.41 1009.18 1008.94 1008.75 1008.62 1008.58 1008.64 1008.81 1009.07 1009.40 1009.77 1010.15 1010.52 1010.84 1011.11 1011.31 1011.45 1011.55
1013.69 1013.18 1012.67 1012.14 1011.59 1011.01 1010.39 1009.76 1009.13 1008.53 1008.01 1007.59 1007.33 1007.24 1007.33 1007.58 1007.98 1008.49 1009.04 1009.60 1010.10 1010.50 1010.77 1010.89 1010.86 1010.70 1010.44 1010.13 1009.81 1009.53 1009.33 1009.23 1009.25 1009.38 1009.61 1009.91 1010.26 1010.61 1010.94 1011.21 1011.43 1011.57 1011.65 1011.68
1013.11 1012.66 1012.22 1011.78 1011.33 1010.85 1010.34 1009.81 1009.27 1008.76 1008.31 1007.97 1007.76 1007.72 1007.86 1008.16 1008.60 1009.15 1009.75 1010.34 1010.87 1011.30 1011.58 1011.70 1011.66 1011.48 1011.19 1010.85 1010.49 1010.17 1009.94 1009.81 1009.79 1009.89 1010.09 1010.36 1010.67 1010.98 1011.25 1011.47 1011.61 1011.68 1011.69 1011.65
1012.58 1012.21 1011.87 1011.55 1011.22 1010.87 1010.47 1010.05 1009.61 1009.17 1008.78 1008.48 1008.30 1008.26 1008.39 1008.68 1009.10 1009.63 1010.22 1010.80 1011.32 1011.74 1012.02 1012.14 1012.11 1011.94 1011.66 1011.32 1010.98 1010.66 1010.42 1010.28 1010.25 1010.33 1010.49 1010.72 1010.97 1011.22 1011.42 1011.56 1011.64 1011.63 1011.57 1011.47
1012.14 1011.87 1011.65 1011.46 1011.26 1011.04 1010.77 1010.45 1010.10 1009.73 1009.39 1009.10 1008.91 1008.85 1008.94 1009.17 1009.53 1009.99 1010.52 1011.05 1011.53 1011.93 1012.20 1012.33 1012.32 1012.17 1011.93 1011.63 1011.32 1011.03 1010.81 1010.68 1010.64 1010.69 1010.81 1010.99 1011.17 1011.34 1011.47 1011.53 1011.52 1011.45 1011.33 1011.17
1011.84 1011.67 1011.57 1011.50 1011.43 1011.33 1011.17 1010.96 1010.69 1010.38 1010.07 1009.80 1009.60 1009.49 1009.52 1009.67 1009.95 1010.32 1010.76 1011.21 1011.64 1012.00 1012.26 1012.39 1012.40 1012.30 1012.11 1011.86 1011.60 1011.36 1011.17 1011.04 1011.00 1011.02 1011.10 1011.20 1011.31 1011.40 1011.44 1011.42 1011.34 1011.21 1011.04 1010.85
1011.70 1011.63 1011.64 1011.67 1011.71 1011.71 1011.65 1011.52 1011.33 1011.08 1010.81 1010.55 1010.33 1010.19 1010.16 1010.23 1010.42 1010.70 1011.05 1011.43 1011.79 1012.10 1012.34 1012.47 1012.51 1012.45 1012.31 1012.12 1011.92 1011.72 1011.55 1011.44 1011.38 1011.36 1011.39 1011.43 1011.46 1011.46 1011.42 1011.33 1011.19 1011.01 1010.81 1010.60
1011.80 1011.81 1011.89 1012.00 1012.11 1012.18 1012.19 1012.14 1012.00 1011.81 1011.57 1011.33 1011.11 1010.95 1010.88 1010.90 1011.01 1011.21 1011.48 1011.78 1012.07 1012.34 1012.55 1012.68 1012.73 1012.71 1012.62 1012.48 1012.32 1012.16 1012.01 1011.90 1011.82 1011.78 1011.74 1011.72 1011.67 1011.60 1011.49 1011.34 1011.15 1010.94 1010.73 1010.53
1012.17 1012.22 1012.34 1012.49 1012.63 1012.75 1012.80 1012.79 1012.70 1012.54 1012.35 1012.13 1011.93 1011.78 1011.68 1011.67 1011.73 1011.87 1012.07 1012.30 1012.53 1012.75 1012.93 1013.05 1013.11 1013.10 1013.04 1012.94 1012.82 1012.68 1012.56 1012.45 1012.35 1012.27 1012.19 1012.10 1012.00 1011.87 1011.71 1011.51 1011.30 1011.08 1010.86 1010.67
1012.80 1012.87 1012.99 1013.14 1013.29 1013.40 1013.47 1013.47 1013.41 1013.29 1013.14 1012.96 1012.78 1012.64 1012.55 1012.52 1012.55 1012.64 1012.78 1012.96 1013.14 1013.31 1013.45 1013.55 1013.60 1013.60 1013.56 1013.48 1013.38 1013.27 1013.16 1013.05 1012.94 1012.83 1012.72 1012.59 1012.44 1012.27 1012.08 1011.86 1011.63 1011.41 1011.21 1011.04
1013.65 1013.71 1013.81 1013.93 1014.04 1014.13 1014.18 1014.18 1014.13 1014.04 1013.91 1013.77 1013.63 1013.51 1013.43 1013.40 1013.41 1013.47 1013.57 1013.69 1013.82 1013.94 1014.03 1014.10 1014.13 1014.13 1014.09 1014.03 1013.95 1013.85 1013.75 1013.64 1013.53 1013.42 1013.28 1013.14 1012.97 1012.77 1012.56 1012.34 1012.12 1011.90 1011.72 1011.58
1014.59 1014.62 1014.68 1014.75 1014.82 1014.87 1014.89 1014.87 1014.82 1014.74 1014.64 1014.53 1014.42 1014.33 1014.26 1014.23 1014.23 1014.26 1014.32 1014.39 1014.46 1014.53 1014.58 1014.61 1014.61 1014.60 1014.56 1014.50 1014.43 1014.35 1014.27 1014.17 1014.07 1013.95 1013.82 1013.67 1013.50 1013.30 1013.10 1012.88 1012.67 1012.47 1012.30 1012.18
1015.47 1015.48 1015.49 1015.51 1015.52 1015.52 1015.50 1015.47 1015.41 1015.34 1015.26 1015.17 1015.09 1015.03 1014.98 1014.94 1014.93 1014.94 1014.95 1014.97 1014.99 1015.00 1015.00 1014.99 1014.97 1014.93 1014.88 1014.83 1014.77 1014.71 1014.64 1014.57 1014.48 1014.38 1014.26 1014.12 1013.96 1013.77 1013.58 1013.38 1013.18 1013.00 1012.85 1012.75
1016.16 1016.12 1016.09 1016.06 1016.03 1015.99 1015.94 1015.89 1015.83 1015.77 1015.71 1015.65 1015.59 1015.55 1015.51 1015.48 1015.45 1015.43 1015.40 1015.38 1015.34 1015.30 1015.25 1015.20 1015.14 1015.09 1015.03 1014.98 1014.93 1014.88 1014.83 1014.78 1014.72 1014.64 1014.54 1014.41 1014.27 1014.10 1013.92 1013.74 1013.56 1013.40 1013.27 1013.17
1016.51 1016.45 1016.39 1016.32 1016.26 1016.20 1016.14 1016.09 1016.04 1015.99 1015.96 1015.92 1015.89 1015.86 1015.84 1015.80 1015.76 1015.72 1015.66 1015.59 1015.51 1015.42 1015.33 1015.24 1015.16 1015.08 1015.01 1014.96 1014.92 1014.88 1014.85 1014.81 1014.76 1014.70 1014.61 1014.50 1014.37 1014.23 1014.06 1013.90 1013.74 1013.59 1013.47 1013.39
1016.50 1016.42 1016.34 1016.27 1016.20 1016.14 1016.09 1016.05 1016.02 1016.01 1016.00 1016.00 1016.00 1015.99 1015.97 1015.94 1015.90 1015.83 1015.75 1015.65 1015.53 1015.41 1015.28 1015.16 1015.05 1014.96 1014.88 1014.82 1014.78 1014.74 1014.71 1014.68 1014.64 1014.58 1014.50 1014.40 1014.27 1014.13 1013.98 1013.83 1013.68 1013.55 1013.44 1013.37
Thickness
5726 5737 5742 5745 5749 5749 5747 5743 5738 5746 5751 5769 5780 5788 5796 5802 5805 5807 5808 5809 5811 5811 5811 5811 5810 5809 5807 5803 5800 5796 5791 5787 5783 5780 5777 5773 5768 5765 5760 5756 5753 5748 5744 5740
5719 5729 5733 5736 5743 5745 5746 5746 5746 5750 5753 5772 5779 5784 5789 5794 5797 5800 5803 5805 5806 5808 5808 5807 5807 5806 5805 5802 5800 5795 5790 5786 5782 5778 5774 5771 5767 5763 5758 5753 5749 5744 5741 5737
5696 5711 5721 5716 5733 5737 5741 5745 5744 5740 5751 5764 5768 5775 5781 5788 5792 5795 5799 5802 5801 5803 5804 5805 5805 5804 5801 5798 5795 5791 5786 5782 5778 5775 5772 5767 5763 5759 5754 5749 5745 5741 5737 5734
5679 5695 5689 5713 5735 5739 5736 5737 5741 5744 5750 5756 5763 5772 5779 5784 5786 5789 5793 5796 5798 5800 5800 5802 5802 5800 5798 5794 5789 5785 5782 5778 5775 5771 5767 5762 5757 5753 5749 5744 5740 5736 5733 5729
5663 5670 5683 5707 5724 5726 5724 5724 5734 5736 5741 5748 5756 5763 5770 5779 5781 5783 5788 5791 5793 5796 5796 5796 5795 5793 5790 5786 5783 5780 5777 5774 5772 5767 5762 5756 5751 5747 5743 5738 5733 5730 5726 5723
5656 5663 5666 5693 5716 5725 5721 5710 5726 5728 5730 5735 5740 5737 5751 5768 5771 5775 5779 5782 5785 5788 5788 5787 5787 5785 5781 5778 5776 5772 5771 5769 5766 5761 5756 5751 5746 5741 5737 5733 5727 5723 5719 5716
5649 5655 5667 5691 5706 5712 5693 5697 5715 5719 5722 5724 5726 5732 5746 5755 5759 5764 5768 5772 5776 5778 5777 5778 5779 5777 5772 5769 5768 5767 5765 5761 5757 5754 5749 5744 5739 5734 5730 5725 5720 5715 5711 5708
5638 5645 5657 5685 5690 5685 5685 5698 5705 5710 5714 5718 5723 5730 5738 5745 5749 5753 5757 5761 5764 5766 5766 5767 5768 5767 5762 5760 5761 5758 5756 5750 5747 5744 5741 5736 5730 5725 5721 5718 5711 5708 5704 5699
5639 5647 5661 5671 5674 5681 5684 5688 5695 5700 5707 5710 5715 5721 5727 5733 5737 5742 5746 5750 5753 5754 5755 5756 5757 5755 5751 5751 5751 5748 5744 5739 5737 5734 5731 5727 5722 5717 5712 5708 5704 5699 5695 5690
5634 5646 5655 5662 5667 5672 5676 5679 5686 5692 5698 5703 5706 5711 5716 5720 5724 5728 5733 5737 5740 5741 5742 5744 5744 5744 5744 5742 5741 5738 5733 5728 5725 5723 5719 5716 5712 5708 5704 5699 5696 5692 5686 5682
5624 5635 5644 5653 5657 5662 5667 5672 5677 5682 5687 5691 5695 5700 5704 5707 5711 5714 5717 5721 5725 5727 5729 5730 5728 5730 5732 5731 5729 5725 5722 5718 5713 5711 5709 5705 5700 5696 5694 5691 5689 5686 5681 5676
5617 5628 5630 5639 5648 5653 5656 5660 5664 5668 5674 5679 5683 5687 5691 5694 5696 5699 5702 5705 5709 5713 5714 5715 5715 5715 5719 5721 5718 5714 5711 5708 5704 5701 5698 5695 5691 5684 5680 5678 5675 5674 5671 5667
5619 5624 5627 5633 5639 5644 5647 5650 5654 5658 5662 5666 5672 5676 5679 5681 5684 5686 5687 5689 5693 5696 5698 5700 5702 5704 5707 5708 5708 5705 5702 5700 5697 5693 5689 5686 5681 5677 5671 5667 5663 5661 5658 5656
5614 5616 5619 5625 5629 5635 5638 5642 5645 5648 5651 5656 5660 5664 5667 5669 5671 5672 5673 5675 5678 5681 5683 5686 5687 5690 5693 5694 5694 5692 5690 5689 5687 5684 5680 5676 5672 5668 5663 5660 5654 5649 5646 5644
5609 5611 5613 5619 5622 5626 5630 5633 5635 5637 5641 5645 5649 5652 5655 5657 5659 5661 5662 5664 5665 5667 5670 5673 5675 5676 5679 5681 5681 5681 5679 5677 5675 5673 5671 5667 5662 5658 5654 5649 5645 5640 5636 5632
5604 5607 5609 5612 5614 5618 5621 5624 5625 5628 5632 5635 5638 5640 5644 5646 5648 5649 5651 5654 5653 5654 5658 5660 5661 5664 5668 5668 5668 5668 5668 5667 5665 5663 5661 5658 5653 5648 5644 5639 5635 5631 5628 5624
5596 5599 5602 5605 5608 5611 5613 5616 5618 5621 5624 5625 5629 5631 5633 5635 5637 5638 5640 5642 5643 5645 5646 5646 5648 5651 5653 5654 5656 5656 5656 5655 5654 5651 5649 5647 5643 5638 5635 5631 5626 5622 5618 5614
5594 5597 5599 5601 5602 5604 5607 5610 5613 5615 5617 5619 5622 5623 5625 5626 5628 5629 5630 5631 5633 5634 5634 5635 5637 5639 5641 5642 5644 5644 5643 5643 5641 5639 5637 5634 5631 5627 5624 5620 5616 5611 5607 5602
5591 5593 5596 5598 5599 5599 5601 5604 5607 5609 5612 5613 5614 5616 5617 5619 5620 5621 5621 5622 5623 5624 5625 5626 5627 5629 5630 5631 5632 5632 5632 5632 5630 5627 5625 5622 5619 5616 5612 5609 5604 5600 5596 5591
5588 5590 5591 5593 5594 5596 5597 5599 5601 5602 5604 5606 5607 5608 5610 5611 5612 5612 5613 5612 5614 5615 5617 5618 5619 5619 5619 5620 5621 5620 5621 5620 5619 5616 5613 5610 5607 5604 5601 5597 5593 5589 5584 5580
5584 5585 5586 5587 5588 5590 5592 5593 5594 5596 5597 5599 5600 5602 5602 5603 5603 5604 5604 5603 5605 5607 5609 5610 5609 5609 5609 5610 5611 5610 5610 5609 5607 5605 5602 5600 5597 5593 5589 5586 5581 5577 5573 5569
5578 5579 5580 5581 5582 5583 5585 5587 5588 5589 5590 5592 5592 5593 5593 5594 5594 5594 5595 5595 5597 5598 5600 5601 5601 5601 5601 5602 5601 5600 5599 5598 5596 5593 5591 5588 5585 5581 5578 5574 5569 5565 5562 5558
5573 5574 5575 5575 5576 5577 5579 5581 5582 5583 5583 5583 5584 5585 5585 5586 5586 5587 5587 5589 5589 5591 5591 5591 5591 5591 5591 5591 5589 5588 5587 5586 5584 5582 5579 5576 5574 5570 5566 5562 5559 5555 5551 5546
5569 5569 5570 5570 5571 5573 5573 5574 5575 5576 5577 5578 5579 5579 5580 5579 5580 5581 5582 5582 5582 5583 5582 5580 5581 5581 5580 5579 5578 5577 5576 5574 5571 5570 5568 5564 5562 5559 5555 5552 5548 5545 5541 5537
5566 5566 5566 5566 5567 5567 5568 5569 5570 5571 5572 5573 5574 5574 5575 5575 5575 5575 5575 5575 5575 5575 5573 5572 5572 5571 5570 5569 5567 5566 5564 5563 5561 5559 5556 5553 5550 5548 5545 5542 5539 5535 5532 5529
5563 5562 5562 5562 5562 5563 5563 5564 5565 5566 5567 5567 5568 5568 5569 5570 5570 5570 5569 5569 5568 5568 5566 5565 5563 5561 5560 5559 5557 5556 5554 5553 5551 5548 5546 5543 5540 5538 5535 5532 5529 5526 5522 5519
5560 5560 5559 5560 5560 5560 5560 5560 5561 5562 5562 5562 5562 5562 5562 5563 5563 5563 5563 5562 5561 5560 5558 5557 5555 5553 5552 5550 5549 5548 5546 5544 5542 5539 5537 5534 5532 5529 5525 5522 5519 5515 5511 5508